FW9176 Weather Reports


time (UTC)temp
C
wind
direction
speed
KPH
gust
KPH
rain 1hr
cm
rain 24hr
cm
rain mn
cm
humidity
%
barometer
mb
20260905234602 22 340 0.0 6.4 0.00 0.00 0.00 79 1013.5
20260905233100 23 62 0.0 8.0 0.00 0.00 0.00 79 1013.3
20260905231556 23 285 0.0 9.7 0.00 0.00 0.00 77 1013.0
20260905224558 25 0 0.0 4.8 0.00 0.00 0.00 75 1012.9
20260905223058 25 61 0.0 4.8 0.00 0.00 0.00 73 1012.9
20260905221605 26 63 1.6 4.8 0.00 0.00 0.00 72 1012.9
20260905214555 26 35 0.0 3.2 0.00 0.00 0.00 70 1012.9
20260905213108 26 65 0.0 3.2 0.00 0.00 0.00 70 1012.6
20260905211601 26 0 0.0 3.2 0.00 0.00 0.00 70 1012.4
20260905210123 26 0 0.0 3.2 0.00 0.00 0.00 72 1012.6
20260905204604 26 29 0.0 1.6 0.00 0.00 0.00 72 1013.0
20260905203101 26 0 0.0 4.8 0.00 0.00 0.00 71 1012.7
20260905201558 26 0 1.6 3.2 0.00 0.00 0.00 72 1012.8
20260905200107 26 46 0.0 4.8 0.00 0.00 0.00 72 1012.9
20260905194608 26 0 0.0 6.4 0.00 0.00 0.00 73 1012.9
20260905193102 26 48 0.0 6.4 0.00 0.00 0.00 72 1013.1
20260905191608 26 77 0.0 3.2 0.00 0.00 0.00 72 1013.1
20260905190100 26 0 0.0 4.8 0.00 0.00 0.00 72 1013.2
20260905184624 26 338 0.0 8.0 0.00 0.00 0.00 72 1013.0
20260905183109 27 274 0.0 6.4 0.00 0.00 0.00 71 1013.1
20260905181601 27 335 0.0 8.0 0.00 0.00 0.00 71 1013.1
20260905180104 27 0 0.0 3.2 0.00 0.00 0.00 70 1012.8
20260905174600 27 0 1.6 3.2 0.00 0.00 0.00 70 1012.9
20260905173109 27 30 0.0 4.8 0.00 0.00 0.00 71 1012.9
20260905171624 27 51 0.0 4.8 0.00 0.00 0.00 69 1013.0
20260905170101 28 324 1.6 4.8 0.00 0.00 0.00 69 1013.1
20260905164605 27 0 0.0 3.2 0.00 0.00 0.00 69 1013.2
20260905163110 28 0 0.0 1.6 0.00 0.00 0.00 70 1013.1
20260905161600 27 51 0.0 6.4 0.00 0.00 0.00 70 1013.2
20260905160100 27 0 0.0 4.8 0.00 0.00 0.00 71 1012.9
20260905154613 27 39 0.0 4.8 0.00 0.00 0.00 70 1012.8
20260905153113 27 70 0.0 3.2 0.00 0.00 0.00 72 1012.7
20260905151614 26 58 0.0 4.8 0.00 0.00 0.00 74 1012.6
20260905150107 26 33 0.0 6.4 0.00 0.00 0.00 74 1012.5
20260905144603 26 12 1.6 6.4 0.00 0.00 0.00 76 1012.4
20260905143104 26 0 0.0 3.2 0.00 0.00 0.00 77 1012.3
20260905141557 25 20 0.0 1.6 0.00 0.00 0.00 79 1012.2
20260905140100 25 0 0.0 3.2 0.00 0.00 0.00 83 1012.1
20260905134558 24 0 0.0 3.2 0.00 0.00 0.00 85 1011.9
20260905133101 23 316 0.0 3.2 0.00 0.00 0.00 86 1012.3
20260905131607 23 0 0.0 1.6 0.00 0.00 0.00 86 1012.1
20260905124601 23 14 0.0 1.6 0.00 0.00 0.00 86 1011.8
20260905123059 23 0 0.0 0.0 0.00 0.00 0.00 86 1011.4
20260905121602 23 0 0.0 0.0 0.00 0.00 0.00 86 1011.4
20260905114602 24 0 0.0 0.0 0.00 0.00 0.00 85 1010.7
20260905113058 24 0 0.0 0.0 0.00 0.00 0.00 85 1010.5
20260905111646 25 0 0.0 0.0 0.00 0.00 0.00 85 1010.2
20260905110057 25 0 0.0 0.0 0.00 0.00 0.00 84 1010.2
20260905104607 25 0 0.0 0.0 0.00 0.00 0.00 84 1010.2
20260905103107 25 0 0.0 0.0 0.00 0.00 0.00 83 1010.1
20260905101607 25 0 0.0 0.0 0.00 0.00 0.00 83 1010.1
20260905094556 25 0 0.0 0.0 0.00 0.00 0.00 83 1010.0
20260905093106 25 0 0.0 0.0 0.00 0.00 0.00 83 1010.2
20260905091601 25 0 0.0 0.0 0.00 0.00 0.00 83 1010.2
20260905090056 25 0 0.0 0.0 0.00 0.00 0.00 83 1010.0
20260905084604 25 0 0.0 0.0 0.00 0.00 0.00 82 1010.0
20260905083102 25 0 0.0 0.0 0.00 0.00 0.00 82 1009.9
20260905081605 25 0 0.0 0.0 0.00 0.00 0.00 82 1009.9
20260905080110 25 0 0.0 0.0 0.00 0.00 0.00 81 1009.8
20260905074558 25 0 0.0 0.0 0.00 0.00 0.00 81 1009.9
20260905073104 25 0 0.0 0.0 0.00 0.00 0.00 81 1009.8
20260905071611 26 0 0.0 0.0 0.00 0.00 0.00 80 1009.9
20260905070059 26 0 0.0 0.0 0.00 0.00 0.00 80 1010.0
20260905064606 26 0 0.0 0.0 0.00 0.00 0.00 79 1010.3
20260905063100 26 0 0.0 0.0 0.00 0.00 0.00 78 1010.2
20260905061601 26 0 0.0 0.0 0.00 0.00 0.00 78 1010.4
20260905060107 26 0 0.0 0.0 0.00 0.00 0.00 77 1010.3
20260905054602 26 0 0.0 0.0 0.00 0.00 0.00 76 1010.2
20260905053108 27 0 0.0 0.0 0.00 0.00 0.00 76 1010.4
20260905051559 27 0 0.0 0.0 0.00 0.00 0.00 76 1010.4
20260905050059 27 0 0.0 0.0 0.00 0.00 0.00 75 1010.4
20260905044601 27 0 0.0 0.0 0.00 0.00 0.00 75 1010.5
20260905043102 27 0 0.0 3.2 0.00 0.00 0.00 74 1010.7
20260905041600 28 0 0.0 1.6 0.00 0.00 0.00 73 1010.7
20260905040105 28 0 0.0 0.0 0.00 0.00 0.00 75 1010.3
20260905034617 28 0 0.0 0.0 0.00 0.00 0.00 74 1010.3
20260905033118 28 0 0.0 0.0 0.00 0.00 0.00 75 1010.5
20260905031612 28 0 0.0 0.0 0.00 0.00 0.00 74 1010.9
20260905030106 29 0 0.0 0.0 0.00 0.00 0.00 74 1011.0
20260905024557 29 0 0.0 0.0 0.00 0.00 0.00 74 1011.0
20260905023125 30 0 0.0 0.0 0.00 0.00 0.00 73 1010.9
20260905021600 30 0 0.0 1.6 0.00 0.00 0.00 72 1010.8
20260905014601 30 0 0.0 0.0 0.00 0.00 0.00 71 1010.6
20260905013100 30 0 0.0 0.0 0.00 0.00 0.00 71 1010.5
20260905011602 30 0 0.0 0.0 0.00 0.00 0.00 71 1010.4
20260905010110 31 0 0.0 0.0 0.00 0.00 0.00 70 1010.1
20260905004630 31 0 0.0 1.6 0.00 0.00 0.00 69 1010.1
20260905003120 31 0 0.0 0.0 0.00 0.00 0.00 68 1009.9
20260905001603 32 0 0.0 4.8 0.00 0.00 0.00 66 1009.8
20260905000132 32 0 0.0 4.8 0.00 0.00 0.00 64 1009.6